MDT14 ENZV-ENBR

Flight info

Callsign MDT14
Flight time 0h 23m
Altitude 16000
Route ALUVA
Aircraft C750/M-SBDE3FGHRWXY/S

Departure

Time 2026-04-22 19:22
Airport Stavanger Airport, Sola (ENZV)

Arrival

Time 2026-04-22 19:45
Airport Bergen Airport, Flesland (ENBR)
Time Latitude Longitude Altitude Speed Heading
2026-04-22 19:04 58.88391 5.62949 22 ft 0 kts 228°
2026-04-22 19:14 58.88389 5.62950 25 ft 0 kts 196°
2026-04-22 19:14 58.88388 5.62960 24 ft 1 kts 100°
2026-04-22 19:14 58.88412 5.62999 22 ft 6 kts 41°
2026-04-22 19:15 58.88432 5.63035 23 ft 4 kts 45°
2026-04-22 19:15 58.88426 5.63130 24 ft 11 kts 129°
2026-04-22 19:15 58.88376 5.63216 25 ft 9 kts 152°
2026-04-22 19:15 58.88316 5.63255 28 ft 9 kts 163°
2026-04-22 19:16 58.88278 5.63330 28 ft 7 kts 101°
2026-04-22 19:16 58.88264 5.63410 28 ft 8 kts 136°
2026-04-22 19:16 58.88202 5.63433 27 ft 10 kts 178°
2026-04-22 19:16 58.88136 5.63436 27 ft 10 kts 179°
2026-04-22 19:17 58.88071 5.63436 27 ft 9 kts 179°
2026-04-22 19:17 58.88010 5.63428 27 ft 7 kts 199°
2026-04-22 19:17 58.87967 5.63397 28 ft 5 kts 204°
2026-04-22 19:17 58.87933 5.63367 28 ft 6 kts 204°
2026-04-22 19:18 58.87885 5.63328 28 ft 9 kts 202°
2026-04-22 19:18 58.87823 5.63288 28 ft 10 kts 186°
2026-04-22 19:18 58.87750 5.63288 28 ft 11 kts 179°
2026-04-22 19:18 58.87668 5.63290 27 ft 13 kts 179°
2026-04-22 19:19 58.87571 5.63297 27 ft 15 kts 178°
2026-04-22 19:19 58.87465 5.63299 27 ft 16 kts 179°
2026-04-22 19:19 58.87351 5.63305 28 ft 17 kts 178°
2026-04-22 19:19 58.87228 5.63310 28 ft 18 kts 179°
2026-04-22 19:20 58.87098 5.63312 29 ft 19 kts 180°
2026-04-22 19:20 58.86983 5.63395 28 ft 18 kts 139°
2026-04-22 19:20 58.86950 5.63573 31 ft 7 kts 90°
2026-04-22 19:20 58.86950 5.63639 33 ft 5 kts 90°
2026-04-22 19:21 58.86955 5.63752 33 ft 11 kts 68°
2026-04-22 19:21 58.87020 5.63802 32 ft 11 kts 360°
2026-04-22 19:21 58.87257 5.63797 31 ft 84 kts 359°
2026-04-22 19:21 58.88088 5.63773 239 ft 134 kts 357°
2026-04-22 19:22 58.89049 5.63751 823 ft 145 kts 355°
2026-04-22 19:22 58.90050 5.63663 1246 ft 147 kts 355°
2026-04-22 19:22 58.91178 5.63516 1578 ft 177 kts 355°
2026-04-22 19:22 58.92470 5.63297 2098 ft 192 kts 354°
2026-04-22 19:23 58.93801 5.63031 2935 ft 196 kts 353°
2026-04-22 19:23 58.95248 5.62700 3539 ft 223 kts 353°
2026-04-22 19:23 58.96862 5.62286 4307 ft 238 kts 352°
2026-04-22 19:23 58.98502 5.61824 5450 ft 239 kts 351°
2026-04-22 19:24 59.00168 5.61314 6407 ft 246 kts 350°
2026-04-22 19:24 59.01879 5.60747 7374 ft 252 kts 349°
2026-04-22 19:24 59.03617 5.60115 8395 ft 257 kts 347°
2026-04-22 19:24 59.05235 5.58517 9261 ft 266 kts 324°
2026-04-22 19:25 59.06652 5.56183 10282 ft 270 kts 320°
2026-04-22 19:25 59.08083 5.53706 10847 ft 286 kts 320°
2026-04-22 19:25 59.09633 5.51024 11026 ft 312 kts 319°
2026-04-22 19:25 59.11330 5.48100 11123 ft 336 kts 319°
2026-04-22 19:26 59.13088 5.45076 11827 ft 337 kts 320°
2026-04-22 19:26 59.14852 5.42044 12478 ft 341 kts 320°
2026-04-22 19:26 59.16646 5.38962 13087 ft 345 kts 320°
2026-04-22 19:26 59.18462 5.35845 13725 ft 349 kts 320°
2026-04-22 19:27 59.20294 5.32704 14321 ft 352 kts 320°
2026-04-22 19:27 59.22125 5.29569 14821 ft 357 kts 320°
2026-04-22 19:27 59.24004 5.26356 15328 ft 361 kts 320°
2026-04-22 19:27 59.25908 5.23101 15830 ft 366 kts 320°
2026-04-22 19:28 59.27837 5.19807 16303 ft 371 kts 320°
2026-04-22 19:28 59.29820 5.16426 16403 ft 387 kts 320°
2026-04-22 19:28 59.31891 5.12897 16407 ft 402 kts 320°
2026-04-22 19:28 59.34039 5.09239 16409 ft 415 kts 320°
2026-04-22 19:29 59.36254 5.05469 16413 ft 425 kts 320°
2026-04-22 19:29 59.38503 5.01644 16408 ft 431 kts 320°
2026-04-22 19:29 59.40783 4.97766 16410 ft 436 kts 320°
2026-04-22 19:29 59.43075 4.93869 16411 ft 437 kts 320°
2026-04-22 19:30 59.44604 4.91269 16413 ft 437 kts 320°
2026-04-22 19:30 59.47683 4.86034 16413 ft 438 kts 320°
2026-04-22 19:30 59.49987 4.82116 16415 ft 438 kts 320°
2026-04-22 19:30 59.52295 4.78190 16417 ft 438 kts 320°
2026-04-22 19:31 59.54606 4.74258 16418 ft 438 kts 320°
2026-04-22 19:31 59.56931 4.70796 15985 ft 399 kts 330°
2026-04-22 19:31 59.59460 4.69108 15000 ft 374 kts 349°
2026-04-22 19:31 59.61935 4.68563 14069 ft 353 kts 355°
2026-04-22 19:32 59.64361 4.68398 12853 ft 344 kts 359°
2026-04-22 19:32 59.66665 4.68650 12227 ft 319 kts
2026-04-22 19:32 59.68630 4.70390 11666 ft 303 kts 32°
2026-04-22 19:32 59.70187 4.72968 11296 ft 284 kts 39°
2026-04-22 19:33 59.71623 4.75628 10505 ft 282 kts 40°
2026-04-22 19:33 59.73036 4.78311 9710 ft 279 kts 40°
2026-04-22 19:33 59.74423 4.80971 8954 ft 275 kts 40°
2026-04-22 19:33 59.75783 4.83592 8222 ft 270 kts 40°
2026-04-22 19:34 59.77120 4.86179 7498 ft 267 kts 40°
2026-04-22 19:34 59.78439 4.88738 6809 ft 263 kts 40°
2026-04-22 19:34 59.79734 4.91253 6093 ft 259 kts 40°
2026-04-22 19:34 59.81035 4.93761 5454 ft 261 kts 40°
2026-04-22 19:35 59.82275 4.96145 5399 ft 233 kts 40°
2026-04-22 19:35 59.83380 4.98295 5399 ft 216 kts 40°
2026-04-22 19:35 59.84446 5.00379 5323 ft 214 kts 40°
2026-04-22 19:35 59.85508 5.02452 4655 ft 220 kts 40°
2026-04-22 19:36 59.86610 5.04592 4134 ft 226 kts 40°
2026-04-22 19:36 59.87800 5.06543 3999 ft 213 kts 33°
2026-04-22 19:36 59.88990 5.08242 3990 ft 209 kts 32°
2026-04-22 19:36 59.90183 5.09944 4005 ft 211 kts 32°
2026-04-22 19:37 59.91387 5.11651 3997 ft 214 kts 32°
2026-04-22 19:37 59.92605 5.13364 3994 ft 215 kts 32°
2026-04-22 19:37 59.93895 5.14857 3984 ft 214 kts 24°
2026-04-22 19:37 59.95249 5.16055 3993 ft 213 kts 21°
2026-04-22 19:38 59.96617 5.17233 3996 ft 215 kts 21°
2026-04-22 19:38 59.97969 5.18399 3995 ft 216 kts 21°
2026-04-22 19:38 59.99358 5.19606 3998 ft 214 kts 21°
2026-04-22 19:38 60.00723 5.20791 3991 ft 214 kts 21°
2026-04-22 19:39 60.02075 5.21957 3994 ft 215 kts 21°
2026-04-22 19:39 60.03452 5.23152 3995 ft 216 kts 21°
2026-04-22 19:39 60.04823 5.24342 3968 ft 216 kts 21°
2026-04-22 19:39 60.06220 5.25541 3891 ft 213 kts 21°
2026-04-22 19:40 60.07522 5.26662 3877 ft 197 kts 21°
2026-04-22 19:40 60.08789 5.27752 3877 ft 200 kts 21°
2026-04-22 19:40 60.10098 5.28491 3839 ft 184 kts
2026-04-22 19:40 60.11264 5.28336 3754 ft 161 kts 355°
2026-04-22 19:41 60.12418 5.28086 3378 ft 171 kts 353°
2026-04-22 19:41 60.13594 5.27619 3059 ft 172 kts 348°
2026-04-22 19:41 60.14765 5.27091 2719 ft 174 kts 348°
2026-04-22 19:41 60.15920 5.26586 2326 ft 166 kts 349°
2026-04-22 19:42 60.17005 5.26137 2190 ft 154 kts 350°
2026-04-22 19:42 60.18051 5.25649 1986 ft 154 kts 348°
2026-04-22 19:42 60.19096 5.25194 1799 ft 153 kts 348°
2026-04-22 19:42 60.20133 5.24822 1594 ft 150 kts 351°
2026-04-22 19:43 60.22139 5.24249 1221 ft 138 kts 349°
2026-04-22 19:43 60.23049 5.23867 1047 ft 132 kts 347°
2026-04-22 19:43 60.23947 5.23569 953 ft 129 kts 351°
2026-04-22 19:44 60.24825 5.23327 840 ft 128 kts 348°
2026-04-22 19:44 60.25700 5.23042 675 ft 126 kts 348°
2026-04-22 19:44 60.26565 5.22726 495 ft 127 kts 348°
2026-04-22 19:44 60.27450 5.22457 364 ft 130 kts 349°
2026-04-22 19:45 60.28320 5.22155 168 ft 118 kts 347°
2026-04-22 19:45 60.28937 5.21948 160 ft 56 kts 351°
2026-04-22 19:45 60.29263 5.21839 154 ft 24 kts 350°
2026-04-22 19:45 60.29349 5.21816 152 ft 6 kts
2026-04-22 19:46 60.29388 5.21922 151 ft 11 kts 77°
2026-04-22 19:46 60.29396 5.22013 154 ft 4 kts 80°
2026-04-22 19:46 60.29387 5.22108 157 ft 11 kts 133°
2026-04-22 19:46 60.29296 5.22158 162 ft 16 kts 169°
2026-04-22 19:47 60.29166 5.22213 168 ft 22 kts 171°
2026-04-22 19:47 60.29000 5.22259 170 ft 25 kts 169°
2026-04-22 19:47 60.28913 5.22388 171 ft 23 kts 143°
2026-04-22 19:47 60.28709 5.22476 169 ft 23 kts 172°
2026-04-22 19:48 60.28585 5.22513 164 ft 10 kts 173°
2026-04-22 19:48 60.28525 5.22569 162 ft 10 kts 102°
2026-04-22 19:48 60.28530 5.22640 163 ft 1 kts 82°
2026-04-22 19:48 60.28530 5.22647 163 ft 0 kts 82°